contact:dominique.lefevre@mio.osupytheas.fr, maurice.libes@osupytheas.fr, didier.mallarino@osupytheas.fr
Project:EMSO http://www.emso-fr.org/EMSO-France
Depth: 2436.0 m
Title:EMSO Ligure Ouest : Data MII capteur AQUADOPP
Date,Latitude,Longitude,X_East,Y_North,Z_Up,Amplitude_X,Amplitude_Y,Amplitude_Z,Batterie,SoundSpeed,Heading,Pitch,Roll,Pressure,TIS,Speed,Direction
, degrees North, degrees East, m.s-1, m.s-1,m.s-1, 1, 1, 1, Volt, m.s-1, degree, degree, degree, dbar, degree_C, m.s-1, degree
2022-07-17T00:04:03,42.805,6.029,0.006,0.046,-0.012,103.0,103.0,100.0,13.4,1505.2,327.1,-0.7,1.8,2471.025,13.28,0.046,7.4
2022-07-17T00:07:03,42.805,6.029,0.014,0.012,-0.011,103.0,104.0,101.0,13.4,1505.2,330.3,-0.7,1.8,2471.01,13.28,0.018,49.4
2022-07-17T00:10:03,42.805,6.029,0.017,0.018,-0.001,103.0,103.0,100.0,13.4,1505.2,319.5,-0.8,1.8,2471.019,13.28,0.024,43.4
2022-07-17T00:13:03,42.805,6.029,0.006,0.007,0.01,103.0,103.0,102.0,13.4,1505.2,326.7,-0.8,1.8,2470.984,13.28,0.009,40.6
2022-07-17T00:16:03,42.805,6.029,0.021,0.0,-0.007,103.0,103.0,102.0,13.4,1505.2,329.1,-0.8,1.8,2470.986,13.29,0.021,90.0
2022-07-17T00:19:03,42.805,6.029,-0.001,0.0,-0.014,102.0,104.0,100.0,13.3,1505.2,327.9,-0.8,1.8,2471.004,13.29,0.001,270.0
2022-07-17T00:22:03,42.805,6.029,0.004,0.022,0.009,103.0,104.0,100.0,13.4,1505.2,319.6,-0.8,1.8,2470.986,13.29,0.022,10.3
2022-07-17T00:25:03,42.805,6.029,0.019,0.006,-0.02,102.0,104.0,100.0,13.4,1505.2,323.6,-0.7,1.8,2470.997,13.29,0.019,72.5
2022-07-17T00:28:03,42.805,6.029,0.027,0.0,-0.03,104.0,103.0,101.0,13.3,1505.2,326.1,-0.7,1.8,2471.014,13.29,0.026,90.0
2022-07-17T00:31:03,42.805,6.029,0.004,0.01,-0.027,102.0,103.0,101.0,13.4,1505.2,329.3,-0.7,1.8,2470.962,13.29,0.01,21.8
2022-07-17T00:34:03,42.805,6.029,0.027,0.014,-0.008,102.0,104.0,99.0,13.3,1505.2,326.1,-0.8,1.8,2470.978,13.29,0.03,62.6
2022-07-17T00:37:03,42.805,6.029,0.0,0.026,-0.005,104.0,103.0,100.0,13.4,1505.2,328.9,-0.8,1.8,2470.955,13.29,0.026,0.0
2022-07-17T00:40:03,42.805,6.029,0.022,0.024,0.014,102.0,104.0,100.0,13.4,1505.2,324.7,-0.7,1.8,2470.974,13.29,0.032,42.5
2022-07-17T00:43:03,42.805,6.029,0.006,0.005,-0.013,103.0,102.0,101.0,13.4,1505.2,329.9,-0.8,1.8,2470.992,13.29,0.007,50.2
2022-07-17T00:46:03,42.805,6.029,0.011,0.025,-0.005,102.0,104.0,100.0,13.3,1505.2,320.9,-0.7,1.8,2470.98,13.29,0.027,23.7
2022-07-17T00:49:03,42.805,6.029,0.008,0.005,-0.01,101.0,105.0,99.0,13.3,1505.2,324.7,-0.7,1.8,2470.974,13.29,0.009,58.0
2022-07-17T00:52:03,42.805,6.029,0.021,0.021,0.006,104.0,102.0,100.0,13.4,1505.2,324.3,-0.7,1.8,2470.922,13.29,0.029,45.0
2022-07-17T00:55:03,42.805,6.029,0.005,0.01,0.0,102.0,104.0,100.0,13.3,1505.2,323.7,-0.8,1.8,2470.932,13.29,0.011,26.6
2022-07-17T00:58:03,42.805,6.029,0.0,0.008,0.009,102.0,103.0,100.0,13.3,1505.2,326.7,-0.8,1.8,2470.965,13.29,0.008,0.0
2022-07-17T01:04:03,42.805,6.029,0.017,0.0,0.066,105.0,104.0,103.0,13.4,1505.2,332.4,-0.8,1.8,2470.95,13.28,0.017,90.0
2022-07-17T01:07:02,42.805,6.029,0.005,0.009,-0.002,102.0,104.0,100.0,13.3,1505.2,327.7,-0.7,1.8,2470.942,13.28,0.01,29.1
2022-07-17T01:10:03,42.805,6.029,0.011,-0.001,0.002,102.0,103.0,101.0,13.4,1505.2,332.4,-0.8,1.8,2470.942,13.28,0.011,95.2
2022-07-17T01:13:03,42.805,6.029,0.015,0.016,0.019,102.0,104.0,101.0,13.4,1505.2,327.2,-0.8,1.8,2470.939,13.28,0.021,43.1
2022-07-17T01:16:03,42.805,6.029,0.005,0.023,-0.041,102.0,103.0,101.0,13.3,1505.2,328.7,-0.8,1.8,2470.919,13.28,0.023,12.3
2022-07-17T01:19:03,42.805,6.029,0.036,0.001,0.003,101.0,103.0,101.0,13.3,1505.2,326.5,-0.8,1.8,2470.949,13.28,0.036,88.4
2022-07-17T01:22:03,42.805,6.029,0.017,0.043,0.029,102.0,103.0,101.0,13.4,1505.2,329.0,-0.8,1.8,2470.917,13.29,0.046,21.6
2022-07-17T01:25:03,42.805,6.029,0.011,-0.001,-0.007,103.0,103.0,101.0,13.3,1505.2,320.7,-0.7,1.8,2470.882,13.29,0.011,95.2
2022-07-17T01:28:03,42.805,6.029,-0.002,0.027,0.016,103.0,105.0,101.0,13.4,1505.2,331.6,-0.8,1.8,2470.96,13.29,0.027,355.8
2022-07-17T01:31:03,42.805,6.029,0.036,0.026,0.031,103.0,103.0,101.0,13.4,1505.2,323.6,-0.8,1.8,2470.915,13.29,0.044,54.2
2022-07-17T01:34:03,42.805,6.029,0.018,0.023,0.007,103.0,103.0,101.0,13.3,1505.2,320.7,-0.8,1.9,2470.909,13.29,0.029,38.0
2022-07-17T01:37:03,42.805,6.029,0.031,0.043,0.004,103.0,101.0,100.0,13.4,1505.2,325.5,-0.8,1.8,2470.896,13.29,0.053,35.8
2022-07-17T01:40:03,42.805,6.029,0.024,0.01,0.015,102.0,104.0,101.0,13.4,1505.2,325.4,-0.8,1.8,2470.94,13.29,0.026,67.4
2022-07-17T01:43:03,42.805,6.029,0.038,0.03,-0.009,104.0,103.0,100.0,13.4,1505.2,324.7,-0.7,1.8,2470.92,13.28,0.048,51.7
2022-07-17T01:46:03,42.805,6.029,0.016,0.009,0.011,102.0,104.0,100.0,13.3,1505.2,324.6,-0.8,1.8,2470.913,13.28,0.018,60.6
2022-07-17T01:49:03,42.805,6.029,0.016,0.023,-0.012,104.0,103.0,99.0,13.4,1505.2,328.1,-0.8,1.8,2470.888,13.28,0.028,34.8
2022-07-17T01:52:03,42.805,6.029,0.028,0.015,-0.003,102.0,103.0,100.0,13.4,1505.2,322.6,-0.7,1.8,2470.926,13.28,0.031,61.8
2022-07-17T01:55:03,42.805,6.029,0.015,0.02,-0.003,103.0,104.0,102.0,13.4,1505.2,329.2,-0.8,1.8,2470.876,13.29,0.025,36.9
2022-07-17T01:58:03,42.805,6.029,-0.004,0.017,0.004,102.0,102.0,102.0,13.4,1505.2,329.0,-0.8,1.8,2470.897,13.29,0.017,346.8
2022-07-17T02:04:03,42.805,6.029,0.02,0.016,-0.009,104.0,102.0,101.0,13.3,1505.2,327.2,-0.8,1.8,2470.904,13.28,0.025,51.3
2022-07-17T02:07:03,42.805,6.029,0.026,0.029,-0.001,104.0,104.0,100.0,13.3,1505.2,319.5,-0.8,1.8,2470.882,13.28,0.038,41.9
2022-07-17T02:10:03,42.805,6.029,0.019,0.011,-0.004,103.0,103.0,102.0,13.3,1505.2,323.8,-0.7,1.8,2470.901,13.28,0.021,59.9
2022-07-17T02:13:03,42.805,6.029,0.02,0.02,-0.023,103.0,102.0,101.0,13.4,1505.2,325.2,-0.7,1.8,2470.809,13.28,0.028,45.0
2022-07-17T02:16:03,42.805,6.029,0.028,0.026,0.0,101.0,104.0,101.0,13.3,1505.2,323.3,-0.8,1.8,2470.838,13.28,0.038,47.1
2022-07-17T02:19:03,42.805,6.029,0.032,0.025,-0.003,104.0,103.0,102.0,13.4,1505.2,321.1,-0.7,1.8,2470.83,13.28,0.04,52.0
2022-07-17T02:22:03,42.805,6.029,0.023,0.02,0.016,102.0,104.0,100.0,13.4,1505.2,330.1,-0.8,1.8,2470.853,13.28,0.03,49.0
2022-07-17T02:25:03,42.805,6.029,0.018,0.014,-0.009,102.0,103.0,101.0,13.4,1505.2,327.8,-0.8,1.8,2470.788,13.28,0.022,52.1
2022-07-17T02:28:03,42.805,6.029,-0.003,0.001,-0.015,102.0,105.0,99.0,13.4,1505.2,322.2,-0.8,1.8,2470.809,13.28,0.003,288.4
2022-07-17T02:31:03,42.805,6.029,0.035,0.014,0.015,102.0,105.0,101.0,13.4,1505.2,330.1,-0.8,1.8,2470.788,13.28,0.037,68.2
2022-07-17T02:34:03,42.805,6.029,0.011,0.022,-0.002,103.0,105.0,101.0,13.4,1505.2,329.4,-0.7,1.8,2470.822,13.28,0.024,26.6
2022-07-17T02:37:03,42.805,6.029,0.011,0.015,-0.007,102.0,105.0,100.0,13.4,1505.2,332.0,-0.7,1.8,2470.817,13.29,0.018,36.3
2022-07-17T02:40:03,42.805,6.029,0.016,0.013,0.018,102.0,105.0,100.0,13.3,1505.2,329.8,-0.7,1.8,2470.823,13.28,0.02,50.9
2022-07-17T02:43:03,42.805,6.029,0.025,0.039,-0.003,102.0,105.0,100.0,13.3,1505.2,321.7,-0.8,1.9,2470.818,13.29,0.046,32.7
2022-07-17T02:46:03,42.805,6.029,0.003,0.022,0.009,103.0,104.0,101.0,13.4,1505.2,333.1,-0.8,1.9,2470.833,13.28,0.022,7.8
2022-07-17T02:49:03,42.805,6.029,0.025,0.008,-0.003,103.0,102.0,101.0,13.4,1505.2,324.5,-0.8,1.8,2470.791,13.29,0.026,72.3
2022-07-17T02:52:03,42.805,6.029,0.024,0.029,0.024,103.0,104.0,100.0,13.3,1505.2,328.3,-0.7,1.8,2470.838,13.28,0.037,39.6
2022-07-17T02:55:03,42.805,6.029,0.025,0.018,0.01,102.0,104.0,101.0,13.4,1505.2,334.1,-0.7,1.8,2470.825,13.28,0.03,54.2
2022-07-17T02:58:03,42.805,6.029,0.024,0.029,0.008,102.0,105.0,101.0,13.4,1505.2,322.8,-0.8,1.8,2470.864,13.28,0.037,39.6
2022-07-17T03:04:03,42.805,6.029,0.018,0.014,-0.013,103.0,105.0,100.0,13.4,1505.2,328.1,-0.8,1.8,2470.865,13.28,0.022,52.1
2022-07-17T03:07:03,42.805,6.029,0.029,0.023,0.023,103.0,104.0,101.0,13.4,1505.2,326.7,-0.8,1.8,2470.88,13.28,0.037,51.6
2022-07-17T03:10:03,42.805,6.029,0.023,0.012,-0.026,103.0,104.0,100.0,13.4,1505.2,324.3,-0.8,1.8,2470.878,13.28,0.025,62.4
2022-07-17T03:13:03,42.805,6.029,0.021,0.014,-0.005,102.0,106.0,100.0,13.3,1505.2,328.5,-0.8,1.8,2470.884,13.28,0.025,56.3
2022-07-17T03:16:03,42.805,6.029,0.016,0.015,0.013,102.0,104.0,101.0,13.3,1505.2,324.9,-0.8,1.8,2470.859,13.28,0.021,46.9
2022-07-17T03:19:03,42.805,6.029,0.026,0.009,-0.027,102.0,105.0,100.0,13.3,1505.2,326.3,-0.8,1.8,2470.867,13.28,0.027,70.9
2022-07-17T03:22:03,42.805,6.029,0.029,0.038,0.026,103.0,103.0,100.0,13.4,1505.2,320.0,-0.8,1.8,2470.821,13.28,0.047,37.3
2022-07-17T03:25:03,42.805,6.029,0.015,0.026,0.002,105.0,103.0,101.0,13.3,1505.2,320.7,-0.7,1.8,2470.878,13.28,0.03,30.0
2022-07-17T03:28:03,42.805,6.029,0.054,0.02,0.02,102.0,106.0,101.0,13.3,1505.2,326.4,-0.8,1.8,2470.834,13.28,0.057,69.7
2022-07-17T03:31:03,42.805,6.029,0.035,0.024,-0.025,102.0,104.0,101.0,13.4,1505.2,321.4,-0.7,1.8,2470.822,13.28,0.042,55.6
2022-07-17T03:34:03,42.805,6.029,0.029,0.015,-0.031,102.0,105.0,101.0,13.4,1505.2,325.8,-0.8,1.8,2470.836,13.28,0.032,62.6
2022-07-17T03:37:03,42.805,6.029,0.029,0.015,-0.008,102.0,105.0,101.0,13.4,1505.2,326.7,-0.7,1.8,2470.886,13.28,0.032,62.6
2022-07-17T03:40:03,42.805,6.029,0.014,0.012,-0.011,103.0,105.0,100.0,13.4,1505.2,323.9,-0.8,1.8,2470.865,13.28,0.018,49.4
2022-07-17T03:43:03,42.805,6.029,0.019,0.021,-0.001,104.0,104.0,100.0,13.3,1505.2,322.2,-0.8,1.8,2470.833,13.28,0.028,42.1
2022-07-17T03:46:03,42.805,6.029,0.016,0.009,-0.016,103.0,104.0,100.0,13.4,1505.2,329.1,-0.8,1.8,2470.846,13.28,0.018,60.6
2022-07-17T03:49:03,42.805,6.029,0.024,0.012,0.006,103.0,104.0,101.0,13.3,1505.2,320.9,-0.8,1.8,2470.819,13.28,0.026,63.4
2022-07-17T03:52:03,42.805,6.029,0.003,0.037,-0.005,102.0,106.0,100.0,13.4,1505.2,322.4,-0.8,1.8,2470.809,13.28,0.037,4.6
2022-07-17T03:55:03,42.805,6.029,0.03,0.007,-0.006,102.0,105.0,100.0,13.3,1505.2,324.9,-0.8,1.9,2470.829,13.28,0.03,76.9
2022-07-17T03:58:03,42.805,6.029,0.012,0.025,0.007,103.0,105.0,100.0,13.3,1505.2,320.1,-0.8,1.8,2470.837,13.28,0.027,25.6
2022-07-17T04:04:03,42.805,6.029,0.038,0.024,0.016,104.0,104.0,100.0,13.4,1505.2,329.1,-0.7,1.8,2470.868,13.28,0.044,57.7
2022-07-17T04:07:03,42.805,6.029,0.026,0.027,-0.024,103.0,105.0,100.0,13.4,1505.2,329.0,-0.8,1.8,2470.845,13.28,0.037,43.9
2022-07-17T04:10:03,42.805,6.029,-0.002,0.013,-0.025,103.0,105.0,100.0,13.4,1505.2,332.9,-0.7,1.8,2470.862,13.28,0.013,351.3
2022-07-17T04:13:03,42.805,6.029,0.03,0.031,-0.01,102.0,106.0,100.0,13.3,1505.2,327.8,-0.8,1.8,2470.826,13.28,0.043,44.1
2022-07-17T04:16:03,42.805,6.029,0.02,0.032,0.001,104.0,104.0,102.0,13.4,1505.2,326.7,-0.8,1.8,2470.781,13.28,0.037,32.0
2022-07-17T04:19:03,42.805,6.029,0.027,0.015,-0.004,103.0,105.0,100.0,13.3,1505.2,324.7,-0.8,1.8,2470.793,13.28,0.03,60.9
2022-07-17T04:22:03,42.805,6.029,0.02,-0.006,-0.004,103.0,104.0,101.0,13.4,1505.2,328.7,-0.8,1.8,2470.803,13.28,0.02,106.7
2022-07-17T04:25:03,42.805,6.029,0.028,0.016,0.01,104.0,104.0,100.0,13.4,1505.2,327.6,-0.8,1.9,2470.78,13.28,0.032,60.3
2022-07-17T04:28:03,42.805,6.029,0.025,0.033,0.006,104.0,103.0,101.0,13.4,1505.2,329.2,-0.7,1.8,2470.754,13.28,0.041,37.2
2022-07-17T04:31:03,42.805,6.029,0.003,0.009,-0.021,102.0,105.0,102.0,13.4,1505.2,319.9,-0.7,1.8,2470.758,13.28,0.009,18.4
2022-07-17T04:34:03,42.805,6.029,0.037,0.019,0.0,103.0,105.0,101.0,13.4,1505.2,328.3,-0.8,1.8,2470.758,13.28,0.041,62.8
2022-07-17T04:37:03,42.805,6.029,0.02,-0.006,-0.005,103.0,106.0,100.0,13.4,1505.2,331.3,-0.8,1.8,2470.717,13.28,0.02,106.7
2022-07-17T04:40:03,42.805,6.029,0.006,0.027,-0.01,104.0,105.0,100.0,13.4,1505.2,326.4,-0.8,1.8,2470.714,13.28,0.027,12.5
2022-07-17T04:43:03,42.805,6.029,0.046,0.02,0.005,103.0,105.0,101.0,13.4,1505.2,328.7,-0.8,1.8,2470.697,13.28,0.05,66.5
2022-07-17T04:46:03,42.805,6.029,0.016,0.007,0.008,102.0,104.0,101.0,13.3,1505.2,327.3,-0.7,1.8,2470.676,13.28,0.017,66.4
2022-07-17T04:49:03,42.805,6.029,0.016,0.004,-0.001,102.0,105.0,100.0,13.4,1505.2,333.1,-0.8,1.8,2470.703,13.28,0.016,76.0
2022-07-17T04:52:03,42.805,6.029,0.039,0.005,0.005,104.0,103.0,100.0,13.4,1505.2,332.2,-0.8,1.8,2470.692,13.28,0.039,82.7
2022-07-17T04:55:03,42.805,6.029,0.05,0.005,0.018,104.0,105.0,99.0,13.4,1505.2,327.6,-0.8,1.8,2470.699,13.28,0.05,84.3
2022-07-17T04:58:03,42.805,6.029,0.027,0.013,-0.007,103.0,105.0,101.0,13.4,1505.2,327.1,-0.8,1.8,2470.711,13.28,0.029,64.3
2022-07-17T05:04:03,42.805,6.029,0.005,0.014,-0.022,103.0,106.0,100.0,13.3,1505.2,329.0,-0.7,1.8,2470.708,13.28,0.014,19.6
2022-07-17T05:07:03,42.805,6.029,0.018,0.044,0.034,103.0,105.0,100.0,13.4,1505.2,323.2,-0.7,1.8,2470.736,13.28,0.047,22.2
2022-07-17T05:10:03,42.805,6.029,0.045,0.008,-0.015,102.0,104.0,100.0,13.3,1505.2,323.1,-0.8,1.8,2470.709,13.28,0.045,79.9
2022-07-17T05:13:03,42.805,6.029,0.019,-0.006,0.01,103.0,106.0,100.0,13.4,1505.2,328.2,-0.7,1.8,2470.749,13.28,0.019,107.5
2022-07-17T05:16:03,42.805,6.029,0.027,0.038,0.026,103.0,104.0,101.0,13.3,1505.2,324.1,-0.7,1.8,2470.717,13.28,0.046,35.4
2022-07-17T05:19:03,42.805,6.029,0.045,0.007,0.001,103.0,105.0,102.0,13.4,1505.2,330.1,-0.7,1.8,2470.764,13.28,0.045,81.2
2022-07-17T05:22:03,42.805,6.029,0.008,-0.001,-0.006,104.0,105.0,100.0,13.4,1505.2,324.5,-0.7,1.8,2470.711,13.28,0.008,97.1
2022-07-17T05:25:03,42.805,6.029,0.048,0.011,-0.009,103.0,104.0,101.0,13.4,1505.2,328.4,-0.8,1.8,2470.782,13.28,0.049,77.1
2022-07-17T05:28:03,42.805,6.029,0.018,0.003,-0.04,103.0,104.0,101.0,13.4,1505.2,328.4,-0.8,1.8,2470.78,13.28,0.018,80.5
2022-07-17T05:31:03,42.805,6.029,0.021,0.005,0.004,102.0,106.0,100.0,13.3,1505.2,325.0,-0.7,1.8,2470.742,13.28,0.021,76.6
2022-07-17T05:34:03,42.805,6.029,0.055,0.001,-0.015,102.0,104.0,101.0,13.4,1505.2,331.9,-0.8,1.8,2470.768,13.28,0.055,89.0
2022-07-17T05:37:03,42.805,6.029,0.017,0.007,-0.009,104.0,104.0,101.0,13.3,1505.2,329.9,-0.8,1.8,2470.742,13.28,0.018,67.6
2022-07-17T05:40:03,42.805,6.029,0.018,0.023,-0.019,104.0,105.0,101.0,13.4,1505.2,322.6,-0.8,1.8,2470.806,13.28,0.029,38.0
2022-07-17T05:43:03,42.805,6.029,0.002,0.025,0.005,103.0,103.0,100.0,13.4,1505.2,329.2,-0.8,1.8,2470.802,13.28,0.025,4.6
2022-07-17T05:46:03,42.805,6.029,0.017,0.029,0.008,102.0,106.0,100.0,13.3,1505.2,324.2,-0.8,1.8,2470.756,13.28,0.033,30.4
2022-07-17T05:49:03,42.805,6.029,0.029,0.014,0.004,102.0,106.0,101.0,13.4,1505.2,333.9,-0.7,1.8,2470.821,13.28,0.032,64.2
2022-07-17T05:52:03,42.805,6.029,0.026,0.008,-0.02,102.0,105.0,101.0,13.4,1505.2,320.6,-0.8,1.8,2470.784,13.28,0.027,72.9
2022-07-17T05:55:03,42.805,6.029,0.014,0.005,-0.007,103.0,106.0,101.0,13.3,1505.2,328.2,-0.7,1.8,2470.838,13.28,0.014,70.4
2022-07-17T05:58:03,42.805,6.029,0.034,0.001,-0.004,103.0,105.0,101.0,13.4,1505.2,333.1,-0.8,1.8,2470.809,13.28,0.034,88.3
2022-07-17T06:04:03,42.805,6.029,0.005,0.004,-0.01,102.0,106.0,101.0,13.4,1505.2,322.6,-0.7,1.8,2470.857,13.28,0.006,51.3
2022-07-17T06:07:03,42.805,6.029,0.025,0.008,-0.009,102.0,105.0,101.0,13.4,1505.2,328.3,-0.8,1.8,2470.861,13.28,0.026,72.3
2022-07-17T06:10:03,42.805,6.029,0.044,0.001,-0.024,104.0,104.0,101.0,13.4,1505.2,332.2,-0.8,1.8,2470.884,13.28,0.044,88.7
2022-07-17T06:13:03,42.805,6.029,0.0,0.014,-0.029,104.0,103.0,101.0,13.4,1505.2,325.0,-0.7,1.8,2470.859,13.28,0.014,0.0
2022-07-17T06:16:03,42.805,6.029,0.014,0.026,0.033,104.0,103.0,100.0,13.4,1505.2,324.2,-0.8,1.8,2470.83,13.28,0.029,28.3
2022-07-17T06:19:03,42.805,6.029,0.037,0.007,-0.057,102.0,104.0,101.0,13.4,1505.2,333.9,-0.7,1.8,2470.842,13.28,0.037,79.3
2022-07-17T06:22:03,42.805,6.029,0.025,-0.001,0.02,103.0,104.0,101.0,13.4,1505.2,327.5,-0.8,1.9,2470.802,13.28,0.025,92.3
2022-07-17T06:25:03,42.805,6.029,0.034,0.016,-0.006,102.0,105.0,101.0,13.4,1505.2,323.3,-0.8,1.8,2470.816,13.28,0.037,64.8
2022-07-17T06:28:03,42.805,6.029,0.031,0.031,-0.027,103.0,105.0,101.0,13.4,1505.2,320.8,-0.7,1.8,2470.843,13.28,0.043,45.0
2022-07-17T06:31:03,42.805,6.029,0.017,0.021,-0.026,103.0,105.0,101.0,13.4,1505.2,329.0,-0.8,1.8,2470.887,13.28,0.027,39.0
2022-07-17T06:34:03,42.805,6.029,0.036,0.004,-0.009,102.0,105.0,100.0,13.4,1505.2,332.2,-0.8,1.8,2470.844,13.28,0.036,83.7
2022-07-17T06:37:03,42.805,6.029,0.034,0.041,-0.01,102.0,106.0,100.0,13.4,1505.2,321.2,-0.8,1.8,2470.847,13.28,0.053,39.7
2022-07-17T06:40:03,42.805,6.029,0.024,0.004,-0.009,102.0,105.0,100.0,13.4,1505.2,328.7,-0.7,1.8,2470.852,13.28,0.024,80.5
2022-07-17T06:43:03,42.805,6.029,0.052,0.019,0.0,102.0,104.0,101.0,13.4,1505.2,333.4,-0.7,1.8,2470.855,13.28,0.055,69.9
2022-07-17T06:46:03,42.805,6.029,0.037,0.026,0.021,103.0,105.0,100.0,13.4,1505.2,321.2,-0.8,1.8,2470.831,13.28,0.045,54.9
2022-07-17T06:49:03,42.805,6.029,0.034,0.013,0.0,101.0,105.0,101.0,13.4,1505.2,328.7,-0.7,1.9,2470.846,13.28,0.036,69.1
2022-07-17T06:52:03,42.805,6.029,0.03,0.008,0.011,103.0,103.0,100.0,13.3,1505.2,328.1,-0.8,1.8,2470.862,13.28,0.031,75.1
2022-07-17T06:55:03,42.805,6.029,0.02,0.009,-0.005,104.0,104.0,100.0,13.4,1505.2,323.3,-0.8,1.8,2470.835,13.28,0.021,65.8
2022-07-17T06:58:03,42.805,6.029,0.038,0.006,0.007,102.0,104.0,100.0,13.4,1505.2,327.2,-0.7,1.8,2470.891,13.28,0.038,81.0
2022-07-17T07:04:03,42.805,6.029,0.05,0.009,0.031,102.0,106.0,101.0,13.4,1505.2,328.4,-0.7,1.8,2470.919,13.28,0.05,79.8
2022-07-17T07:07:03,42.805,6.029,0.026,0.008,-0.006,103.0,106.0,100.0,13.3,1505.2,329.0,-0.8,1.8,2470.919,13.28,0.027,72.9
2022-07-17T07:10:03,42.805,6.029,0.018,0.003,-0.02,102.0,106.0,101.0,13.4,1505.2,319.0,-0.8,1.8,2470.909,13.28,0.018,80.5
2022-07-17T07:13:03,42.805,6.029,0.02,0.011,0.007,103.0,105.0,100.0,13.4,1505.2,325.2,-0.8,1.8,2470.901,13.28,0.022,61.2
2022-07-17T07:16:03,42.805,6.029,0.023,0.016,0.006,103.0,105.0,100.0,13.4,1505.2,319.5,-0.8,1.8,2470.864,13.28,0.028,55.2
2022-07-17T07:19:03,42.805,6.029,0.009,0.025,-0.009,102.0,106.0,101.0,13.4,1505.2,321.2,-0.8,1.8,2470.914,13.28,0.026,19.8
2022-07-17T07:22:03,42.805,6.029,0.018,0.035,0.003,103.0,105.0,101.0,13.4,1505.2,322.3,-0.8,1.8,2470.886,13.28,0.039,27.2
2022-07-17T07:25:03,42.805,6.029,0.048,0.01,0.002,103.0,106.0,101.0,13.4,1505.2,327.5,-0.8,1.8,2470.875,13.28,0.049,78.2
2022-07-17T07:28:03,42.805,6.029,0.027,0.017,-0.015,102.0,105.0,101.0,13.4,1505.2,323.6,-0.7,1.8,2470.902,13.28,0.031,57.8
2022-07-17T07:31:03,42.805,6.029,0.017,0.01,-0.006,103.0,104.0,100.0,13.4,1505.2,330.1,-0.7,1.8,2470.914,13.28,0.019,59.5
2022-07-17T07:34:03,42.805,6.029,0.02,0.023,-0.024,103.0,105.0,101.0,13.3,1505.2,329.2,-0.7,1.8,2470.894,13.28,0.03,41.0
2022-07-17T07:37:03,42.805,6.029,0.022,-0.001,-0.027,103.0,105.0,101.0,13.4,1505.2,319.7,-0.8,1.8,2470.926,13.28,0.022,92.6
2022-07-17T07:40:03,42.805,6.029,0.043,0.029,0.007,103.0,105.0,100.0,13.4,1505.2,324.6,-0.7,1.8,2470.908,13.28,0.051,56.0
2022-07-17T07:43:03,42.805,6.029,0.024,0.034,0.001,103.0,105.0,100.0,13.4,1505.2,321.8,-0.7,1.8,2470.91,13.28,0.041,35.2
2022-07-17T07:46:03,42.805,6.029,0.046,0.022,0.001,102.0,106.0,101.0,13.4,1505.2,319.4,-0.8,1.8,2470.913,13.28,0.05,64.4
2022-07-17T07:49:03,42.805,6.029,0.026,0.028,-0.001,100.0,106.0,101.0,13.4,1505.2,324.2,-0.7,1.8,2470.943,13.28,0.038,42.9
2022-07-17T07:52:03,42.805,6.029,0.014,0.008,0.005,102.0,106.0,101.0,13.4,1505.2,324.1,-0.8,1.8,2470.908,13.28,0.016,60.3
2022-07-17T07:55:03,42.805,6.029,0.023,0.013,0.019,102.0,106.0,100.0,13.4,1505.2,321.0,-0.8,1.8,2470.898,13.28,0.026,60.5
2022-07-17T07:58:03,42.805,6.029,0.052,0.018,-0.003,103.0,106.0,100.0,13.4,1505.2,322.6,-0.8,1.8,2470.919,13.28,0.055,70.9
2022-07-17T08:04:03,42.805,6.029,0.029,0.03,0.014,103.0,105.0,100.0,13.4,1505.2,327.8,-0.8,1.8,2470.972,13.28,0.041,44.0
2022-07-17T08:07:03,42.805,6.029,0.032,0.008,-0.009,103.0,106.0,100.0,13.4,1505.2,321.4,-0.7,1.8,2470.953,13.28,0.032,76.0
2022-07-17T08:10:03,42.805,6.029,0.032,0.014,0.0,102.0,105.0,102.0,13.3,1505.2,330.2,-0.8,1.9,2470.94,13.28,0.034,66.4
2022-07-17T08:13:03,42.805,6.029,0.023,0.013,0.003,103.0,103.0,102.0,13.4,1505.2,323.0,-0.8,1.8,2470.917,13.28,0.026,60.5
2022-07-17T08:16:03,42.805,6.029,0.032,-0.002,-0.011,103.0,105.0,100.0,13.3,1505.2,329.3,-0.8,1.8,2470.934,13.28,0.032,93.6
2022-07-17T08:19:03,42.805,6.029,0.048,0.012,0.036,103.0,104.0,100.0,13.4,1505.2,328.7,-0.7,1.8,2470.935,13.28,0.049,76.0
2022-07-17T08:22:03,42.805,6.029,0.033,0.013,0.004,102.0,106.0,101.0,13.4,1505.2,322.4,-0.8,1.8,2470.931,13.28,0.035,68.5
2022-07-17T08:25:03,42.805,6.029,0.023,0.031,0.011,102.0,103.0,100.0,13.3,1505.2,325.2,-0.8,1.8,2470.909,13.28,0.038,36.6
2022-07-17T08:28:03,42.805,6.029,0.021,0.003,-0.014,103.0,108.0,101.0,13.4,1505.2,330.5,-0.8,1.8,2470.919,13.28,0.021,81.9
2022-07-17T08:31:03,42.805,6.029,0.018,0.007,0.011,103.0,106.0,100.0,13.3,1505.2,323.9,-0.8,1.8,2470.917,13.28,0.019,68.8
2022-07-17T08:34:03,42.805,6.029,0.019,0.019,-0.003,103.0,106.0,100.0,13.4,1505.2,328.6,-0.8,1.8,2470.894,13.28,0.026,45.0
2022-07-17T08:37:03,42.805,6.029,0.051,0.035,-0.004,102.0,105.0,101.0,13.4,1505.2,319.8,-0.8,1.8,2470.903,13.28,0.061,55.5
2022-07-17T08:40:03,42.805,6.029,0.032,0.032,0.049,103.0,105.0,100.0,13.4,1505.2,323.8,-0.8,1.8,2470.901,13.28,0.045,45.0
2022-07-17T08:43:03,42.805,6.029,0.052,0.005,0.007,102.0,106.0,100.0,13.3,1505.2,329.2,-0.8,1.8,2470.929,13.28,0.052,84.5
2022-07-17T08:46:03,42.805,6.029,0.036,0.014,0.012,103.0,106.0,101.0,13.3,1505.2,333.4,-0.8,1.8,2470.894,13.28,0.038,68.8
2022-07-17T08:49:03,42.805,6.029,0.011,0.013,0.014,102.0,106.0,100.0,13.3,1505.2,326.7,-0.7,1.9,2470.876,13.28,0.017,40.2
2022-07-17T08:52:03,42.805,6.029,0.032,0.021,0.012,104.0,112.0,100.0,13.4,1505.2,322.3,-0.8,1.8,2470.853,13.28,0.038,56.7
2022-07-17T08:55:03,42.805,6.029,0.039,0.018,0.013,103.0,105.0,100.0,13.4,1505.2,330.0,-0.8,1.8,2470.88,13.28,0.042,65.2
2022-07-17T08:58:03,42.805,6.029,0.007,0.008,-0.043,103.0,105.0,101.0,13.4,1505.2,320.1,-0.8,1.8,2470.905,13.28,0.01,41.2
2022-07-17T09:04:03,42.805,6.029,0.025,0.006,-0.009,103.0,105.0,100.0,13.4,1505.2,322.5,-0.8,1.8,2470.947,13.28,0.025,76.5
2022-07-17T09:07:03,42.805,6.029,0.02,0.014,-0.001,102.0,105.0,100.0,13.3,1505.2,325.1,-0.7,1.8,2470.928,13.28,0.024,55.0
2022-07-17T09:10:03,42.805,6.029,0.025,0.031,0.0,104.0,106.0,100.0,13.3,1505.2,323.5,-0.8,1.8,2470.912,13.28,0.039,38.9
2022-07-17T09:13:03,42.805,6.029,0.029,0.015,-0.045,103.0,106.0,101.0,13.4,1505.2,327.9,-0.7,1.9,2470.932,13.28,0.032,62.6
2022-07-17T09:16:03,42.805,6.029,0.055,0.035,0.028,103.0,105.0,100.0,13.4,1505.2,320.1,-0.8,1.8,2470.941,13.28,0.065,57.5
2022-07-17T09:19:03,42.805,6.029,0.013,0.03,-0.047,102.0,104.0,102.0,13.3,1505.2,324.3,-0.7,1.8,2470.917,13.28,0.032,23.4
2022-07-17T09:22:03,42.805,6.029,0.055,0.006,-0.008,102.0,105.0,101.0,13.4,1505.2,332.4,-0.8,1.8,2470.953,13.28,0.055,83.8
2022-07-17T09:25:03,42.805,6.029,0.017,0.019,-0.024,101.0,105.0,101.0,13.4,1505.2,325.2,-0.8,1.8,2470.927,13.28,0.025,41.8
2022-07-17T09:28:03,42.805,6.029,0.028,0.037,0.008,102.0,106.0,101.0,13.4,1505.2,324.8,-0.8,1.8,2470.885,13.28,0.046,37.1
2022-07-17T09:31:03,42.805,6.029,0.021,0.013,-0.005,104.0,105.0,101.0,13.4,1505.2,331.9,-0.8,1.8,2470.867,13.28,0.024,58.2
2022-07-17T09:34:03,42.805,6.029,0.035,0.008,0.002,102.0,107.0,101.0,13.4,1505.2,330.8,-0.8,1.8,2470.898,13.28,0.035,77.1
2022-07-17T09:37:03,42.805,6.029,0.03,0.006,0.015,103.0,106.0,100.0,13.4,1505.2,333.6,-0.8,1.8,2470.902,13.28,0.03,78.7
2022-07-17T09:40:03,42.805,6.029,0.014,0.015,-0.022,103.0,104.0,102.0,13.4,1505.2,327.8,-0.8,1.8,2470.894,13.28,0.02,43.0
2022-07-17T09:43:03,42.805,6.029,0.017,0.004,0.012,103.0,105.0,101.0,13.4,1505.2,333.4,-0.8,1.8,2470.921,13.28,0.017,76.8
2022-07-17T09:46:03,42.805,6.029,0.041,0.019,-0.012,103.0,105.0,101.0,13.4,1505.2,321.6,-0.8,1.8,2470.91,13.28,0.045,65.1
2022-07-17T09:49:03,42.805,6.029,0.018,0.029,0.002,103.0,106.0,100.0,13.4,1505.2,320.3,-0.8,1.8,2470.842,13.28,0.034,31.8
2022-07-17T09:52:03,42.805,6.029,0.057,0.029,0.015,101.0,106.0,101.0,13.4,1505.2,318.8,-0.8,1.8,2470.92,13.28,0.063,63.0
2022-07-17T09:55:03,42.805,6.029,0.001,0.0,-0.025,103.0,106.0,100.0,13.4,1505.2,321.9,-0.8,1.8,2470.907,13.28,0.001,90.0
2022-07-17T09:58:03,42.805,6.029,0.029,0.013,-0.038,102.0,106.0,101.0,13.4,1505.2,323.7,-0.7,1.8,2470.909,13.28,0.031,65.9
2022-07-17T10:04:03,42.805,6.029,0.014,0.02,-0.016,103.0,107.0,101.0,13.4,1505.2,319.7,-0.8,1.8,2470.897,13.28,0.024,35.0
2022-07-17T10:07:03,42.805,6.029,0.029,0.029,-0.009,104.0,107.0,102.0,13.3,1505.2,329.4,-0.8,1.9,2470.914,13.28,0.041,45.0